North Willoughby Real Estate, NSW, 2068 Willoughby

Thinking about buying in North Willoughby? Now could not be a better time, with a whopping 2209 properties either residential or commercial there's certainly plenty to choose from.

Distance to the coast is 4 Km.

North Willoughby Real Estate Market Outlook

Consistent high demand relative to supply is a key feature in North Willoughby driving regular price increases. Recent rapid price increases however may constrain future growth by limiting demand. High average incomes in North Willoughby ensure a focus on quality with a commensurate high entry price under constant demand. Competition for available quality housing is intense with multiple offers likely to be made in excess of asking prices. The high percentage of professional people in North Willoughby classifies the area as "gentrified". This implies high demand for quality housing, generally of larger than average size. Price growth is ensured even where the state affordability index is negatively impacting other areas. High density population in North Willoughby requires consistent turnover in housing ensuring constant demand. Housing styles may be a mix of low, medium, and high density, providing choice for well-financed buyers and value growth over time. High industry presence in the wider area is a double-edged sword. While local employment options are high, the presence of industrial buildings may negatively impact lifestyle perception. Demand from first home buyers and investors however ensures good price growth.

About

Properties For Sale

LJ Hooker 34 HOLLYWOOD CR, NORTH WILLOUGHBY, NSW, 2068 2 1 1 Sold

Local Schools


None within suburb boundary

(While the above schools are located with the suburb of North Willoughby there may also be nearby schools whose catchments cover this suburb)

Local Crime Rates


Average Local Climate by month


(mm)
RAIN
Min (°C)
TEMP
Max (°C)
TEMP
Min (%)
HUMIDITY
Max (%)
HUMIDITY
(m/sec)
WIND
(MJ/sq m)
SOLAR
Jan2.520.327.652.485.5023.2
Feb4.320.127.054.286.5019.6
Mar6.518.925.954.587.3015.9
Apr5.915.323.551.489.0013.9
May2.612.321.247.584.4011.4
Jun4.610.318.550.385.409.1
Jul2.69.018.243.782.1010.4
Aug2.69.719.739.480.2013.1
Sept1.412.522.437.080.2017.8
Oct2.215.023.742.782.8021.1
Nov3.417.125.349.285.2023.4
Dec2.118.726.449.284.8024.4

source: Australian Government Bureau of Meteorology

Recently Sold Properties / House Prices

26-05-2022 $2,875,000 11 OWEN ST NORTH WILLOUGHBY 2068
24-05-2022 $775,000 10 / 127 PENSHURST ST NORTH WILLOUGHBY 2068
19-05-2022 $2,130,000 184 SYDNEY ST NORTH WILLOUGHBY 2068
12-05-2022 $2,980,000 34 HOLLYWOOD CRES NORTH WILLOUGHBY 2068
11-05-2022 $4,250,000 20 FORSYTH ST NORTH WILLOUGHBY 2068
03-05-2022 $460,600 210 PENSHURST ST NORTH WILLOUGHBY 2068
27-04-2022 $2,605,000 65 MCCLELLAND ST NORTH WILLOUGHBY 2068
26-04-2022 $2,750,000 329 PENSHURST ST NORTH WILLOUGHBY 2068
26-04-2022 $3,300,000 23 FORSYTH ST NORTH WILLOUGHBY 2068
20-04-2022 $2,285,000 18 MACMAHON ST NORTH WILLOUGHBY 2068
20-04-2022 $900,000 1 / 1 CHURCH ST NORTH WILLOUGHBY 2068
19-04-2022 $905,000 2 / 156 PENSHURST ST NORTH WILLOUGHBY 2068
14-04-2022 $1,300,000 14 / 290 PENSHURST ST NORTH WILLOUGHBY 2068
14-04-2022 $4,000,000 8 TYNESIDE AVE NORTH WILLOUGHBY 2068
12-04-2022 $2,230,000 159 SYDNEY ST NORTH WILLOUGHBY 2068
30-03-2022 $4,550,000 2 GLOVER ST NORTH WILLOUGHBY 2068
25-03-2022 $890,000 12 / 156 PENSHURST ST NORTH WILLOUGHBY 2068
21-03-2022 $3,400,000 37 GLOVER ST NORTH WILLOUGHBY 2068
11-03-2022 $3,530,000 4 ROSEWALL ST NORTH WILLOUGHBY 2068
11-03-2022 $6,250,000 338 PENSHURST ST NORTH WILLOUGHBY 2068
11-03-2022 $6,250,000 336 PENSHURST ST NORTH WILLOUGHBY 2068
01-03-2022 $2,050,000 164 SYDNEY ST NORTH WILLOUGHBY 2068
28-02-2022 $4,300,000 27 GLOVER ST NORTH WILLOUGHBY 2068
24-02-2022 $4,725,000 34 PATRICK ST NORTH WILLOUGHBY 2068
23-02-2022 $3,300,000 20 BEDFORD ST NORTH WILLOUGHBY 2068
16-02-2022 $2,890,000 85 LAUREL ST NORTH WILLOUGHBY 2068
15-02-2022 $3,608,888 39 BEDFORD ST NORTH WILLOUGHBY 2068
14-02-2022 $3,457,000 214 HIGH ST NORTH WILLOUGHBY 2068
14-02-2022 $3,457,000 214 HIGH ST NORTH WILLOUGHBY 2068
28-01-2022 $1,250,000 1 / 290 PENSHURST ST NORTH WILLOUGHBY 2068
28-01-2022 $1,250,000 1 / 290 PENSHURST ST NORTH WILLOUGHBY 2068
20-01-2022 $3,530,000 16 ROSEWALL ST NORTH WILLOUGHBY 2068
20-01-2022 $3,100,000 259 HIGH ST NORTH WILLOUGHBY 2068
19-01-2022 $4,400,000 98 SYDNEY ST NORTH WILLOUGHBY 2068
13-01-2022 $2,920,000 8 TELAK CL NORTH WILLOUGHBY 2068
10-01-2022 $4,010,000 32 NEVILLE ST NORTH WILLOUGHBY 2068
21-12-2021 $772,000 15 / 260 PENSHURST ST NORTH WILLOUGHBY 2068
21-12-2021 $950,000 1 / 143 SYDNEY ST NORTH WILLOUGHBY 2068
17-12-2021 $745,000 3 / 303 PENSHURST ST NORTH WILLOUGHBY 2068
15-12-2021 $3,155,000 23 PATRICK ST NORTH WILLOUGHBY 2068
15-12-2021 $2,930,000 102 SYDNEY ST NORTH WILLOUGHBY 2068
13-12-2021 $3,650,000 25 HORSLEY AVE NORTH WILLOUGHBY 2068
09-12-2021 $970,000 4 / 155 PENSHURST ST NORTH WILLOUGHBY 2068
06-12-2021 $4,065,000 2 SUMMERVILLE CRES NORTH WILLOUGHBY 2068
26-11-2021 $4,650,000 14 MACMAHON ST NORTH WILLOUGHBY 2068
25-11-2021 $1,145,000 12 / 1 CHURCH ST NORTH WILLOUGHBY 2068
12-11-2021 $3,750,000 12 HORSLEY AVE NORTH WILLOUGHBY 2068
01-11-2021 $1,625,000 2 / 222 HIGH ST NORTH WILLOUGHBY 2068
29-10-2021 $802,500 15 / 147 SYDNEY ST NORTH WILLOUGHBY 2068
28-10-2021 $846,500 8 / 156 PENSHURST ST NORTH WILLOUGHBY 2068

Internet Speed

  • Fibre to the Basement (vectored or non-vectored)
  • Fibre to the Curb
  • Hybrid Fibre Coaxial (HFC)
  • Satellite

Residz covers 12m+ Australian properties and brings together a wealth of data to give you a better understanding of an area. From crime and schools to bush fire, flood risk and more. Begin your search for properties for sale or learn more about where you currently reside. Residz is an exciting next-generation Real Estate platform getting better by the day!